| time (UTC) | temp C | wind direction | speed KPH | gust KPH | rain 1hr cm | rain 24hr cm | rain mn cm | humidity % | barometer mb |
| 20260509111548 | 10 | 0.0 | 11.3 | 0.00 | 0.18 | 0.00 | 96 | 1004.7 | |
| 20260509110053 | 10 | 0.0 | 11.3 | 0.00 | 0.18 | 0.00 | 96 | 1004.6 | |
| 20260509104546 | 10 | 0.0 | 14.5 | 0.00 | 0.18 | 0.00 | 96 | 1004.7 | |
| 20260509103044 | 10 | 0.0 | 9.7 | 0.00 | 0.18 | 0.00 | 96 | 1004.8 | |
| 20260509101544 | 10 | 0.0 | 11.3 | 0.00 | 0.18 | 0.00 | 95 | 1004.9 | |
| 20260509100041 | 10 | 0.0 | 11.3 | 0.00 | 0.18 | 0.00 | 95 | 1004.9 | |
| 20260509094542 | 10 | 0.0 | 11.3 | 0.00 | 0.18 | 0.00 | 95 | 1004.9 | |
| 20260509093040 | 10 | 0.0 | 11.3 | 0.00 | 0.18 | 0.00 | 95 | 1005.0 | |
| 20260509091540 | 10 | 0.0 | 12.9 | 0.00 | 0.18 | 0.00 | 95 | 1005.1 | |
| 20260509090039 | 9 | 0.0 | 12.9 | 0.00 | 0.18 | 0.00 | 95 | 1005.1 | |
| 20260509084541 | 9 | 0.0 | 9.7 | 0.00 | 0.18 | 0.00 | 94 | 1005.0 | |
| 20260509083037 | 9 | 0.0 | 6.4 | 0.00 | 0.18 | 0.00 | 94 | 1005.1 | |
| 20260509081536 | 10 | 0.0 | 9.7 | 0.00 | 0.18 | 0.00 | 94 | 1005.2 | |
| 20260509080053 | 10 | 0.0 | 6.4 | 0.00 | 0.18 | 0.00 | 94 | 1005.2 | |
| 20260509074534 | 10 | 0.0 | 6.4 | 0.00 | 0.18 | 0.00 | 93 | 1005.0 | |
| 20260509073058 | 10 | 0.0 | 4.8 | 0.00 | 0.18 | 0.00 | 93 | 1005.2 | |
| 20260509071530 | 10 | 0.0 | 3.2 | 0.00 | 0.18 | 0.00 | 93 | 1005.4 | |
| 20260509070028 | 10 | 0.0 | 4.8 | 0.00 | 0.18 | 0.00 | 93 | 1005.5 | |
| 20260509064528 | 10 | 0.0 | 8.0 | 0.00 | 0.18 | 0.00 | 93 | 1005.6 | |
| 20260509063029 | 11 | 0.0 | 6.4 | 0.00 | 0.18 | 0.00 | 93 | 1005.5 | |
| 20260509061524 | 11 | 0.0 | 4.8 | 0.00 | 0.18 | 0.00 | 93 | 1005.7 | |
| 20260509060021 | 11 | 0.0 | 9.7 | 0.00 | 0.18 | 0.00 | 92 | 1005.9 | |
| 20260509054528 | 11 | 0.0 | 6.4 | 0.00 | 0.18 | 0.00 | 92 | 1006.0 | |
| 20260509053119 | 11 | 0.0 | 9.7 | 0.00 | 0.18 | 0.00 | 92 | 1006.0 | |
| 20260509051516 | 11 | 0.0 | 8.0 | 0.00 | 0.18 | 0.00 | 91 | 1006.2 | |
| 20260509050014 | 11 | 0.0 | 6.4 | 0.00 | 0.18 | 0.00 | 91 | 1006.2 | |
| 20260509044515 | 11 | 0.0 | 6.4 | 0.00 | 0.18 | 0.18 | 90 | 1006.4 | |
| 20260509043031 | 11 | 0.0 | 6.4 | 0.00 | 0.18 | 0.18 | 90 | 1006.4 | |
| 20260509041513 | 11 | 0.0 | 8.0 | 0.00 | 0.18 | 0.18 | 89 | 1006.4 | |
| 20260509040012 | 12 | 0.0 | 4.8 | 0.00 | 0.18 | 0.18 | 89 | 1006.5 | |
| 20260509034513 | 12 | 0.0 | 6.4 | 0.00 | 0.18 | 0.18 | 88 | 1006.6 | |
| 20260509033011 | 12 | 0.0 | 6.4 | 0.00 | 0.18 | 0.18 | 87 | 1006.9 | |
| 20260509031510 | 12 | 0.0 | 6.4 | 0.00 | 0.18 | 0.18 | 86 | 1006.9 | |
| 20260509030009 | 12 | 0.0 | 6.4 | 0.00 | 0.18 | 0.18 | 85 | 1007.0 | |
| 20260509024511 | 12 | 0.0 | 6.4 | 0.00 | 0.18 | 0.18 | 85 | 1006.8 | |
| 20260509023017 | 13 | 0.0 | 8.0 | 0.00 | 0.18 | 0.18 | 84 | 1006.8 | |
| 20260509021517 | 13 | 0.0 | 6.4 | 0.00 | 0.18 | 0.18 | 83 | 1006.8 | |
| 20260509020008 | 13 | 0.0 | 8.0 | 0.00 | 0.18 | 0.18 | 82 | 1006.8 | |
| 20260509014507 | 13 | 0.0 | 6.4 | 0.00 | 0.18 | 0.18 | 81 | 1006.7 | |
| 20260509013020 | 14 | 0.0 | 8.0 | 0.00 | 0.18 | 0.18 | 79 | 1006.7 | |
| 20260509011507 | 15 | 0.0 | 8.0 | 0.00 | 0.18 | 0.18 | 78 | 1006.7 | |
| 20260509010006 | 15 | 0.0 | 17.7 | 0.00 | 0.18 | 0.18 | 77 | 1006.6 | |
| 20260509004517 | 15 | 0.0 | 14.5 | 0.00 | 0.18 | 0.18 | 75 | 1006.5 | |
| 20260509003006 | 16 | 0.0 | 14.5 | 0.00 | 0.18 | 0.18 | 75 | 1006.4 | |
| 20260509001504 | 16 | 0.0 | 20.9 | 0.00 | 0.18 | 0.18 | 73 | 1006.3 | |
| 20260509000003 | 16 | 0.0 | 22.5 | 0.00 | 0.18 | 0.18 | 71 | 1006.4 | |
| 20260508234503 | 17 | 0.0 | 16.1 | 0.00 | 0.18 | 0.18 | 68 | 1006.4 | |
| 20260508233002 | 17 | 0.0 | 22.5 | 0.00 | 0.18 | 0.18 | 67 | 1006.4 | |
| 20260508231501 | 17 | 0.0 | 24.1 | 0.00 | 0.18 | 0.18 | 68 | 1006.4 | |
| 20260508224559 | 17 | 0.0 | 19.3 | 0.00 | 0.18 | 0.18 | 69 | 1006.4 | |
| 20260508223057 | 17 | 0.0 | 22.5 | 0.00 | 0.18 | 0.18 | 70 | 1006.6 | |
| 20260508221557 | 17 | 0.0 | 19.3 | 0.00 | 0.18 | 0.18 | 70 | 1006.7 | |
| 20260508220059 | 17 | 0.0 | 19.3 | 0.00 | 0.18 | 0.18 | 69 | 1006.7 | |
| 20260508214554 | 17 | 0.0 | 19.3 | 0.00 | 0.18 | 0.18 | 71 | 1006.7 | |
| 20260508213053 | 17 | 0.0 | 16.1 | 0.00 | 0.18 | 0.18 | 73 | 1006.7 | |
| 20260508211557 | 17 | 0.0 | 17.7 | 0.00 | 0.18 | 0.18 | 73 | 1006.7 | |
| 20260508210106 | 17 | 0.0 | 17.7 | 0.00 | 0.18 | 0.18 | 72 | 1006.8 | |
| 20260508204554 | 17 | 0.0 | 19.3 | 0.00 | 0.18 | 0.18 | 72 | 1006.9 | |
| 20260508203049 | 17 | 0.0 | 22.5 | 0.00 | 0.18 | 0.18 | 72 | 1007.1 | |
| 20260508201546 | 17 | 0.0 | 19.3 | 0.00 | 0.18 | 0.18 | 72 | 1007.3 | |
| 20260508200048 | 17 | 0.0 | 17.7 | 0.00 | 0.18 | 0.18 | 70 | 1007.6 | |
| 20260508194547 | 17 | 0.0 | 19.3 | 0.00 | 0.18 | 0.18 | 70 | 1007.6 | |
| 20260508193050 | 17 | 0.0 | 17.7 | 0.00 | 0.18 | 0.18 | 70 | 1007.7 | |
| 20260508191541 | 17 | 0.0 | 4.8 | 0.00 | 0.18 | 0.18 | 68 | 1007.8 | |
| 20260508190049 | 17 | 0.0 | 0.0 | 0.00 | 0.18 | 0.18 | 69 | 1008.0 | |
| 20260508184554 | 16 | 0.0 | 0.0 | 0.00 | 0.18 | 0.18 | 69 | 1008.3 | |
| 20260508183034 | 16 | 0.0 | 4.8 | 0.00 | 0.18 | 0.18 | 68 | 1008.6 | |
| 20260508181547 | 16 | 0.0 | 8.0 | 0.00 | 0.18 | 0.18 | 69 | 1008.5 | |
| 20260508180032 | 16 | 0.0 | 4.8 | 0.00 | 0.18 | 0.18 | 71 | 1008.7 | |
| 20260508174527 | 16 | 0.0 | 8.0 | 0.00 | 0.18 | 0.18 | 71 | 1008.9 | |
| 20260508173024 | 16 | 0.0 | 11.3 | 0.00 | 0.18 | 0.18 | 70 | 1009.3 | |
| 20260508171522 | 16 | 0.0 | 4.8 | 0.00 | 0.18 | 0.18 | 72 | 1009.7 | |
| 20260508170021 | 16 | 0.0 | 8.0 | 0.00 | 0.18 | 0.18 | 73 | 1009.7 | |
| 20260508164516 | 16 | 0.0 | 11.3 | 0.00 | 0.18 | 0.18 | 74 | 1009.9 | |
| 20260508163013 | 15 | 0.0 | 8.0 | 0.00 | 0.18 | 0.18 | 75 | 1010.1 | |
| 20260508161508 | 15 | 0.0 | 9.7 | 0.00 | 0.18 | 0.18 | 79 | 1010.3 | |
| 20260508160011 | 14 | 0.0 | 9.7 | 0.00 | 0.18 | 0.18 | 81 | 1010.5 | |
| 20260508154501 | 14 | 0.0 | 9.7 | 0.00 | 0.18 | 0.18 | 83 | 1010.7 | |
| 20260508153059 | 13 | 0.0 | 11.3 | 0.00 | 0.18 | 0.18 | 86 | 1010.8 | |
| 20260508151602 | 13 | 0.0 | 8.0 | 0.00 | 0.18 | 0.18 | 90 | 1010.8 | |
| 20260508150101 | 12 | 0.0 | 9.7 | 0.00 | 0.18 | 0.18 | 92 | 1010.8 | |
| 20260508144619 | 12 | 0.0 | 9.7 | 0.00 | 0.18 | 0.18 | 94 | 1011.0 | |
| 20260508143101 | 12 | 0.0 | 8.0 | 0.00 | 0.18 | 0.18 | 95 | 1010.9 | |
| 20260508141559 | 11 | 0.0 | 4.8 | 0.00 | 0.18 | 0.18 | 95 | 1010.9 | |
| 20260508140050 | 11 | 0.0 | 8.0 | 0.00 | 0.18 | 0.18 | 96 | 1011.0 | |
| 20260508134553 | 11 | 0.0 | 9.7 | 0.00 | 0.18 | 0.18 | 95 | 1011.1 | |
| 20260508133109 | 11 | 0.0 | 6.4 | 0.03 | 0.18 | 0.18 | 95 | 1011.2 | |
| 20260508131544 | 10 | 0.0 | 11.3 | 0.10 | 0.18 | 0.18 | 95 | 1011.2 | |
| 20260508130038 | 10 | 0.0 | 6.4 | 0.13 | 0.18 | 0.18 | 95 | 1011.2 | |
| 20260508124536 | 9 | 0.0 | 8.0 | 0.18 | 0.18 | 0.18 | 94 | 1011.5 | |
| 20260508123043 | 9 | 0.0 | 6.4 | 0.15 | 0.15 | 0.15 | 94 | 1011.7 | |
| 20260508121536 | 9 | 0.0 | 6.4 | 0.08 | 0.08 | 0.08 | 94 | 1011.9 | |
| 20260508120029 | 8 | 0.0 | 6.4 | 0.05 | 0.05 | 0.05 | 94 | 1011.2 | |
| 20260508114527 | 8 | 0.0 | 6.4 | 0.00 | 0.00 | 0.00 | 93 | 1011.6 | |
| 20260508113026 | 8 | 0.0 | 0.0 | 0.00 | 0.00 | 0.00 | 93 | 1011.1 |